TimeEDT,TemperatureF,Dew PointF,Humidity,Sea Level PressureIn,VisibilityMPH,Wind Direction,Wind SpeedMPH,Gust SpeedMPH,PrecipitationIn,Events,Conditions,WindDirDegrees,DateUTC
12:54 AM,55.0,52.0,89,29.85,10.0,ENE,16.1,24.2,0.00,,Mostly Cloudy,70,2013-05-06 04:54:00
1:54 AM,55.0,52.0,89,29.83,10.0,ENE,18.4,26.5,0.00,Rain,Light Rain,70,2013-05-06 05:54:00
2:01 AM,55.4,51.8,88,29.83,10.0,ENE,19.6,26.5,0.00,Rain,Light Rain,70,2013-05-06 06:01:00
2:54 AM,55.0,52.0,89,29.83,5.0,ENE,18.4,28.8,0.00,Rain,Rain,70,2013-05-06 06:54:00
3:54 AM,55.0,52.0,89,29.82,9.0,ENE,13.8,-,0.03,Rain,Light Rain,60,2013-05-06 07:54:00
4:10 AM,55.4,51.8,88,29.82,10.0,NE,17.3,-,0.00,,Overcast,50,2013-05-06 08:10:00
4:47 AM,55.4,51.8,88,29.81,10.0,ENE,15.0,-,0.00,Rain,Light Rain,60,2013-05-06 08:47:00
4:52 AM,55.4,51.8,88,29.82,10.0,ENE,15.0,-,0.00,Rain,Light Rain,70,2013-05-06 08:52:00
4:54 AM,55.0,52.0,89,29.82,10.0,ENE,13.8,-,0.00,Rain,Light Rain,60,2013-05-06 08:54:00
5:27 AM,55.4,51.8,88,29.82,10.0,ENE,20.7,-,0.01,,Mostly Cloudy,60,2013-05-06 09:27:00
5:35 AM,55.4,51.8,88,29.82,10.0,ENE,18.4,25.3,0.01,,Mostly Cloudy,60,2013-05-06 09:35:00
5:54 AM,55.0,52.0,89,29.83,10.0,ENE,15.0,23.0,0.01,,Overcast,60,2013-05-06 09:54:00
6:54 AM,55.0,52.0,89,29.84,10.0,ENE,13.8,-,0.00,Rain,Light Rain,70,2013-05-06 10:54:00
7:54 AM,55.0,52.0,89,29.86,10.0,East,15.0,-,0.00,Rain,Light Rain,80,2013-05-06 11:54:00
8:02 AM,53.6,51.8,94,29.88,5.0,SSE,13.8,-,0.00,Rain,Light Rain,150,2013-05-06 12:02:00
8:14 AM,51.8,50.0,94,29.88,5.0,SSE,8.1,-,0.01,Rain,Light Rain,160,2013-05-06 12:14:00
8:54 AM,53.1,50.0,89,29.88,10.0,East,8.1,-,0.01,,Overcast,90,2013-05-06 12:54:00
9:54 AM,55.0,50.0,83,29.88,10.0,NE,8.1,-,N/A,,Overcast,40,2013-05-06 13:54:00
10:54 AM,57.0,52.0,83,29.90,10.0,East,9.2,-,0.00,Rain,Light Rain,80,2013-05-06 14:54:00
11:54 AM,60.1,55.0,83,29.88,10.0,ENE,20.7,26.5,0.00,,Overcast,60,2013-05-06 15:54:00
12:01 PM,60.8,55.4,82,29.88,10.0,ENE,19.6,26.5,N/A,,Mostly Cloudy,70,2013-05-06 16:01:00
12:54 PM,60.1,54.0,80,29.88,10.0,ENE,17.3,-,N/A,,Mostly Cloudy,70,2013-05-06 16:54:00
1:14 PM,60.8,53.6,77,29.89,10.0,ENE,18.4,-,N/A,,Mostly Cloudy,70,2013-05-06 17:14:00
1:54 PM,63.0,55.0,75,29.88,10.0,ENE,12.7,-,N/A,,Overcast,60,2013-05-06 17:54:00
2:54 PM,66.9,55.9,68,29.87,10.0,ENE,11.5,-,N/A,,Mostly Cloudy,70,2013-05-06 18:54:00
3:54 PM,66.9,55.9,68,29.85,10.0,NE,17.3,21.9,N/A,,Scattered Clouds,40,2013-05-06 19:54:00
4:54 PM,64.9,55.0,70,29.83,10.0,NE,12.7,21.9,N/A,,Mostly Cloudy,40,2013-05-06 20:54:00
5:51 PM,57.2,46.4,67,29.87,10.0,SSW,10.4,-,N/A,,Overcast,200,2013-05-06 21:51:00
5:54 PM,55.9,48.0,75,29.87,10.0,South,9.2,-,0.00,Rain,Light Rain,180,2013-05-06 21:54:00
6:01 PM,55.4,48.2,77,29.88,1.8,Variable,3.5,-,0.02,Rain,Heavy Rain,0,2013-05-06 22:01:00
6:12 PM,53.6,50.0,88,29.90,0.8,ESE,6.9,-,0.26,Rain,Heavy Rain,120,2013-05-06 22:12:00
6:24 PM,53.6,51.8,94,29.90,1.5,South,9.2,-,0.43,Rain,Heavy Rain,190,2013-05-06 22:24:00
6:32 PM,51.8,50.0,94,29.90,3.0,Variable,3.5,-,0.47,Rain,Light Rain,0,2013-05-06 22:32:00
6:54 PM,53.1,51.1,93,29.89,10.0,West,3.5,-,0.47,Rain,Light Rain,270,2013-05-06 22:54:00
7:54 PM,53.1,51.1,93,29.89,6.0,North,8.1,-,0.01,Rain,Rain,360,2013-05-06 23:54:00
8:34 PM,53.6,51.8,94,29.91,2.5,South,4.6,-,0.12,Rain,Rain,180,2013-05-07 00:34:00
8:54 PM,53.6,51.8,94,29.92,2.0,Calm,Calm,-,N/A,Rain,Heavy Rain,0,2013-05-07 00:54:00
9:02 PM,53.6,51.8,94,29.92,1.8,Calm,Calm,-,0.10,Rain,Heavy Rain,0,2013-05-07 01:02:00
9:07 PM,53.6,51.8,94,29.92,3.0,NW,3.5,-,0.14,Rain,Heavy Rain,320,2013-05-07 01:07:00
9:54 PM,54.0,51.1,90,29.92,8.0,Calm,Calm,-,0.18,Rain,Rain,0,2013-05-07 01:54:00
10:33 PM,53.6,51.8,94,29.93,10.0,North,5.8,-,N/A,Rain,Light Rain,360,2013-05-07 02:33:00
10:54 PM,54.0,51.1,90,29.92,10.0,NW,3.5,-,0.07,Rain,Light Rain,310,2013-05-07 02:54:00
11:54 PM,54.0,51.1,90,29.90,10.0,North,4.6,-,0.00,,Mostly Cloudy,360,2013-05-07 03:54:00